Regional Weather Roundup
Issued by NWS Wakefield, VA

Home | Current Version | Previous Version | Text Only | Print | Product List | Glossary Off
Versions: 1 2 3 4 5 6 7 8 9 10 11 12 13 14 15 16 17 18 19 20 21 22 23 24 25 26

000
ASUS41 KAKQ 290315
RWRAKQ

REGIONAL WEATHER ROUNDUP
NATIONAL WEATHER SERVICE WAKEFIELD VA
1100 PM EDT TUE JUL 28 2015

Note: "fair" indicates few or no clouds below 12,000 feet with no
significant weather and/or obstructions to visibility. * = Denotes
station may not report precipitation (e.g., rain,snow,etc.),
thunder or fog.

VAZ042-051-052>054-056-290400-
NORTHERN VIRGINIA

CITY           SKY/WX    TMP DP  RH WIND       PRES   REMARKS
WASH NATIONAL  PTCLDY    81  74  79 SW3       30.01R
DULLES         PTCLDY    73  71  93 CALM      30.02R
FORT BELVOIR   FOG       73  73 100 CALM      30.01R VSB 1/2
QUANTICO       CLEAR     78  71  79 W3        30.01S
FREDERICKSBRG* MOCLDY    76  76 100 CALM      30.00S FOG
STAFFORD*      PTCLDY    72  70  95 CALM      30.05S FOG
WARRENTON      CLEAR     73  72  99 NW3       30.01F FOG
CULPEPER*      MOCLDY    72  71  99 CALM      30.02F FOG
MANASSAS*      PTCLDY    73  73 100 CALM      30.01
LEESBURG*      CLEAR     77  73  88 S8        30.02S
WINCHESTER     PTCLDY    75  72  88 W3        30.01F
FRONT ROYAL*   FAIR      73  72  94 CALM      30.02R
LURAY*         FAIR      77  72  83 S6        30.03S
$$

VAZ048-049-060>072-079>083-290400-
CENTRAL AND SOUTH CENTRAL VIRGINIA

CITY           SKY/WX    TMP DP  RH WIND       PRES   REMARKS
RICHMOND       MOCLDY    78  74  87 CALM      30.01S
CHESTERFIELD*  FAIR      75  64  69 CALM      30.02F
PETERSBURG*    MOCLDY    76  76 100 CALM      30.01F FOG
HANOVER        MOCLDY    74  74 100 CALM      30.03S FOG
TAPPAHANNOCK*  MOCLDY    74  71  91 CALM      30.01F FOG
QUINTON*       MOCLDY    76  75  98 CALM      30.00F
CHARLOTTSVILLE CLOUDY    73  71  93 CALM      30.03S
GORDONSVILLE*  MOCLDY    72  72 100 CALM      30.02S FOG
ORANGE*        MOCLDY    73  73 100 CALM      30.04R FOG
LOUISA*        MOCLDY    73  73 100 CALM      30.02R
BUMPASS*       FAIR      73  72  98 CALM      30.02R
FARMVILLE*     CLOUDY    75  75 100 CALM      30.01S
CREWE*         FAIR     N/A N/A N/A CALM      30.02R
FORT PICKETT*  MOCLDY    74  74  98 NE5       30.02S
CHASE CITY*    CLOUDY    75  75 100 CALM      30.02R
CLARKSVILLE*   FAIR      73  73 100 CALM      30.00S
SOUTH HILL*    MOCLDY    74  73  99 CALM      30.07S
LAWRENCEVILLE* CLOUDY    75  75 100 CALM      30.01S
EMPORIA*       MOCLDY    75  73  94 CALM      30.02S
$$

VAZ088>098-290400-
SOUTHEAST VIRGINIA

CITY           SKY/WX    TMP DP  RH WIND       PRES   REMARKS
NORFOLK        PTCLDY    80  72  76 S6        30.01R
VIRGINIA BEACH MOCLDY    81  72  74 S6        30.00S
NORFOLK NAVAL  PTCLDY    79  72  79 SE5       30.02S
WEST POINT*    PTCLDY    78  75  89 CALM      30.02F
SALUDA*        FAIR      76  74  93 CALM      30.00F
NEWPORT NEWS   PTCLDY    75  71  87 NE3       30.01S
LANGLEY AFB    PTCLDY    75  71  85 S6        30.00F
FORT EUSTIS    PTCLDY    78  78 100 SE2       29.99S
WILLIAMSBURG*  PTCLDY    79  75  89 CALM      30.02S
HR EXEC AP*    FAIR      72  68  88 CALM      30.03F
FRANKLIN*      MOCLDY    75  73  91 E6        30.01S
WAKEFIELD      PTCLDY    75  72  90 CALM      30.01R
$$

VAZ020-022-025-037-045-290400-
WEST CENTRAL AND SOUTHWEST VIRGINIA

CITY           SKY/WX    TMP DP  RH WIND       PRES   REMARKS
STAUNTON*      CLOUDY    76  73  91 CALM      30.07S
WAYNESBORO*    FAIR      72  71  99 CALM      30.07R
HOT SPRINGS VA PTCLDY    67  67 100 SE3       30.17R
LYNCHBURG      LGT RAIN  73  73 100 CALM      30.04S
DANVILLE       MOCLDY    74  72  93 E3        30.01S
SOUTH BOSTON*  CLOUDY    73  72  96 CALM      30.02R
MARTINSVILLE   CLOUDY    74  74 100 CALM      30.04F
ROANOKE        TSTM      76  72  87 N8        30.07R
BLACKSBURG     MOCLDY    70  70  99 CALM      30.13R
DUBLIN*          N/A     73  71  92 SW3       30.10S
MARION*        CLEAR     72  69  90 CALM      30.14R
HILLSVILLE*    PTCLDY    69  68  97 CALM      30.11S
RICHLANDS*     FAIR      73  71  92 CALM      30.11S
WISE*          CLEAR     73  73 100 CALM      30.12S
ABINGDON*      MOCLDY    74  71  90 CALM      30.09R
$$

MDZ021>025-VAZ099-100-290400-
SOUTHERN MARYLAND AND THE DELMARVA PENINSULA

CITY           SKY/WX    TMP DP  RH WIND       PRES   REMARKS
PATUXENT RIVER PTCLDY    74  72  93 CALM      30.00F
BAY BRIDGE APT   N/A     79  72  78 S3        30.01S
LEONARDTOWN    PTCLDY    73  70  88 CALM      30.02F
DOVER          PTCLDY    77  74  90 SW7       29.99S
GEORGETOWN     PTCLDY    74  72  93 CALM      30.02R
EASTON         CLEAR     81  75  83 CALM      30.05R
CAMBRIDGE      CLEAR     77  72  83 CALM      30.01R
SALISBURY      CLEAR     73  72  96 E3        30.01R
OCEAN CITY     FAIR      72  69  90 CALM      30.02R
WALLOPS ISLAND CLEAR     76  72  87 S6        30.02R
ACCOMACK*      PTCLDY   N/A N/A N/A S6        30.01S
$$

NCZ012>017-030>032-290400-
NORTH CENTRAL AND EASTERN NORTH CAROLINA

CITY           SKY/WX    TMP DP  RH WIND       PRES   REMARKS
ROANOKE RAPIDS FAIR      72  70  94 CALM      30.01R
RALEIGH        LGT RAIN  77  74  90 CALM      30.00R
ELIZABETH CITY MOCLDY    76  71  85 SE3       30.02R
AHOSKIE*       PTCLDY    74  67  78 CALM      30.01S
EDENTON*         N/A     78  71  77 CALM      30.02R
CURRITUCK*     MOCLDY    77  68  74 CALM      30.03R
KILL DEVIL HLS MOCLDY    76  69  77 SE5       30.02R
MANTEO         MOCLDY    75  70  86 CALM      30.03R
CAPE HATTERAS  PTCLDY    76  68  76 E5        30.02R
TARBORO*         N/A     75  72  89 CALM      30.01S
GOLDSBORO      MOCLDY    79  74  84 SE3       29.98R
WASHINGTON     PTCLDY    76  71  85 CALM      30.01S
GREENVILLE     PTCLDY    79  72  78 SE5       30.02S
NEW BERN       PTCLDY    75  71  87 CALM      30.01R
WILMINGTON     PTCLDY    76  71  85 N3        29.99R
$$

VAZ048-290400-
ELSEWHERE

CITY           SKY/WX    TMP DP  RH WIND       PRES   REMARKS
HARRISBURG PA  PTCLDY    77  70  79 CALM      29.99R
BALTIMORE      PTCLDY    77  71  82 CALM      30.00R
ANNAPOLIS      CLEAR     78  71  79 S5        30.01R
ANDREWS AFB    CLEAR     75  72  92 S2        30.01R
PHILADELPHIA   PTCLDY    81  72  74 SW3       29.99F
HENDERSON NC   MOCLDY    73  71  91 NE3       30.01S FOG
GREENSBORO     CLOUDY    76  75  97 N3        30.02R
ROCKY MOUNT    PTCLDY    78  72  81 E3        29.99S
$$

VAZ100-290400-
MARINE

STATION/POSITION TIME  TEMP    WIND        PRES    WAVE   SWELL
                       AIR SEA DIR/SP/G            HT/PER HT/PER
                 (UTC) (F)     (DEG/KT/KT) (MB)    (FT/S) (FT/S)
BRANDYWINE LGT   0200   76 73  230/ 10/ 11 1015.9R
CAPE MAY NJ      0200   76 80  230/  6/  8 1015.2F
LEWES DE         0200   77 74  230/  3/  6 1015.7S
15NM E FENWICK I 0250   79 79  210/ 10/ 12 1016.2R   3/ 6   2/ 6
OCEAN-CITY-INLET 0200   76 75  220/  7/  7 1015.3R
WACHAPREAGUE VA  0200   80 85  200/  6/  9 1016.4R
GOOSES REEF MD   0300   81 81  240/  4/  6 1017.2R
COVE POINT MD    0200   79     210/  5/  5 1016.7R
SOLOMONS ISLAND  0200      84                N/A
BISHOPS HEAD MD  0200   82 85  230/  5/  6 1015.0R
POTOMAC MD       0300   82 83  210/  4/  6 1014.9S   1
CAMBRIDGE MD     0200   80 83  190/  3/  5 1014.8F
LEWISETTA VA     0200   79 83  170/  6/  6 1015.8R
RAPPAHANNOCK LGT 0200          150/  7/  8 1016.8R
STINGRAY PT      0300   82 83  170/ 10/ 12 1015.9F   1/ 2
YORK RVR RNG VA  0200   84     160/  1/  1 1015.6R
YORKTOWN VA      0200   81 83  140/  1/  1 1015.8R
JAMESTOWN VA     0300   82 85  160/  6/  6   N/A
DOMINION TERM VA 0200   83     180/  2/  3 1015.9R
KIPTOPEKE VA     0200      83  170/ 10/ 11   N/A
CHES BAY BRIDGE  0200   80 77  120/  5/  8 1016.0R
CAPE HENRY VA    0200   79     150/  4/  6   N/A
CHESAPEAKE LGHT  0200   80     170/ 12/ 13 1017.0R
WILLOUBY STN VA  0200   81     120/  6/  8 1017.1R
CAPE HENRY BUOY  0228      81                N/A     3/ 7
1ST LANDING BUOY 0300      80              1015.9S   1/ 4
CAPE CHARLES BUO 0226      80                N/A     2/10   2/10
OFFSHORE WE BUOY 0211      81                N/A     3/11   2/11
64NM E OF VA BCH 0250   80 82  160/  6/  8 1016.4R   3/ 6   3/ 6
DUCK PIER NC     0200   79 76  150/  9/ 10 1015.3R
44100 DUCK FRF   0224      81                N/A     2/11
44056 DUCK FRF   0211      80                N/A     2/11   2/11
OREGON INLET NC  0200   79 85  120/  4/  5 1016.1R
HATTERAS NC      0200   80 84   80/  6/  7 1015.7R
CAPE LOOKOUT NC  0300   81      90/ 11/ 13 1015.4R
$$



USA.gov is the U.S. government's official web portal to all federal, state and local government web resources and services.